Vorticity
15 19 9 8 6 5 4 4 5 11 9 5 4 5 5 5 6 8 7 8 7 7 7 7 8 8 9 10 9 5 4 6 7 9 8 5 4 5 10 -6 45 -7 38
17 12 9 6 4 2 6 7 8 8 3 2 -1 -4 -2 0 3 7 8 7 9 9 9 8 8 8 9 10 11 12 9 5 6 8 9 9 7 5 5 9 -1 19 32
13 12 7 4 3 5 6 4 6 4 2 3 1 -1 -1 2 4 7 11 11 10 10 9 8 7 8 9 8 9 10 12 9 13 11 10 10 8 7 7 6 12 4 1
12 7 5 5 4 5 6 5 6 3 3 2 1 1 -0 -2 3 7 16 14 11 10 10 9 8 8 7 7 8 8 9 10 3 9 15 13 9 9 7 8 5 6 6
8 6 4 4 4 7 6 4 4 3 2 2 1 0 -1 -0 4 15 19 14 10 9 7 8 6 6 6 5 4 4 5 6 8 4 2 8 12 11 10 10 4 7 6
8 6 5 5 5 6 5 4 4 4 3 2 1 -0 -3 2 11 21 12 7 7 6 5 4 4 4 4 4 4 3 3 3 3 5 4 1 2 4 8 12 8 10 5
9 7 6 5 6 6 5 5 6 5 4 2 0 -6 3 17 24 11 7 7 6 7 6 5 4 3 2 3 4 5 5 5 6 6 6 4 2 2 2 4 5 8 8
6 11 8 7 7 6 6 5 4 4 2 -0 -2 13 23 13 3 6 8 8 7 8 10 9 7 7 8 8 7 8 9 8 9 9 8 8 8 6 2 3 5 7 4
6 11 10 8 7 7 5 4 5 1 -8 4 17 11 0 0 9 9 8 8 7 6 6 7 7 7 8 8 8 8 7 5 6 6 8 8 8 7 6 6 6 6 8
9 6 7 10 7 3 7 7 -4 -4 4 19 5 3 9 12 12 6 6 4 5 6 6 7 7 7 12 11 9 6 5 8 8 7 6 9 14 15 13 9 5 4 6
4 10 7 -0 4 5 1 0 1 10 20 3 3 6 10 7 7 5 3 3 4 5 5 5 7 9 9 8 7 5 -1 3 5 3 8 7 3 1 2 2 13 15 10
2 4 7 6 4 -1 -0 8 22 6 4 8 14 10 6 8 7 6 3 1 2 3 6 5 4 4 3 4 4 5 3 5 5 6 5 8 7 11 11 16 16 8 0
12 6 1 2 1 4 22 9 3 8 7 3 4 6 3 -3 1 7 10 10 9 6 7 12 21 20 12 7 5 5 9 9 7 5 5 4 4 9 13 5 2 4 13
-0 4 9 8 16 10 4 2 1 2 5 6 2 5 14 16 14 15 15 16 17 21 12 13 15 7 0 7 23 31 29 26 23 22 21 21 17 18 15 13 11 8 9
11 11 9 8 5 4 1 -1 4 6 7 8 12 14 14 16 17 18 17 13 10 8 14 16 15 23 31 25 24 18 15 16 18 18 17 19 19 18 18 19 16 14 17
7 11 -1 -0 -1 -1 0 7 10 12 13 12 13 14 13 13 13 13 14 17 17 15 18 17 14 7 24 16 16 13 13 12 13 15 16 16 15 15 14 15 18 20 18
2 5 5 4 3 10 9 11 12 10 11 11 9 11 10 9 11 12 13 11 8 10 15 13 15 13 10 12 13 14 14 11 10 10 9 9 8 7 6 5 6 9 11
5 0 -4 -0 7 9 9 8 11 11 11 12 14 15 16 17 20 22 15 11 13 13 6 3 5 11 14 4 10 12 13 14 14 14 13 11 10 8 6 5 4 5 5
3 -8 -1 13 11 11 13 11 12 16 16 14 14 12 9 9 10 11 12 17 13 11 13 12 5 1 -2 6 15 -3 3 15 11 9 9 11 13 14 16 16 15 14 9
-1 10 15 13 14 14 15 16 16 13 12 11 8 8 6 4 7 6 11 12 14 10 12 12 15 15 19 18 14 4 17 4 9 9 6 8 10 10 8 13 13 9 8
13 14 12 12 17 18 18 13 12 8 10 7 6 6 9 8 6 6 10 11 13 9 11 10 12 13 15 18 14 14 9 14 17 4 7 8 6 8 6 8 7 8 5
13 12 14 14 14 12 10 9 7 9 8 9 11 11 12 14 16 16 17 17 13 13 11 9 8 10 10 13 20 16 13 12 14 16 15 11 9 7 6 6 6 7 8
10 13 14 12 10 10 10 8 9 9 11 12 12 14 16 17 18 20 22 19 19 12 13 9 9 7 9 12 17 19 14 16 14 13 15 16 16 14 12 9 9 7 7
12 13 10 8 9 11 9 8 8 10 14 12 12 11 13 16 14 18 19 16 18 16 10 10 9 8 7 7 10 21 21 16 13 9 10 9 13 16 11 11 13 14 11
12 9 7 8 10 9 9 8 11 15 11 8 11 14 14 16 17 19 20 16 15 14 12 13 12 11 10 9 9 13 12 10 8 7 5 10 13 20 20 16 21 11 12
9 7 7 10 9 11 11 10 13 11 11 11 13 16 19 22 17 16 17 17 16 18 21 22 22 20 16 13 11 8 10 11 8 7 6 8 14 11 14 15 18 15 12
Height
3141 3141 3143 3144 3145 3145 3145 3144 3144 3142 3141 3139 3137 3135 3134 3132 3130 3127 3125 3122 3119 3116 3114 3111 3108 3105 3103 3101 3099 3098 3095 3091 3088 3087 3086 3083 3080 3078 3077 3076 3074 3074 3075
3136 3138 3140 3141 3141 3141 3141 3142 3141 3139 3138 3136 3135 3133 3131 3129 3127 3124 3121 3118 3114 3112 3109 3106 3104 3101 3099 3096 3094 3092 3091 3088 3085 3083 3081 3081 3079 3077 3074 3073 3073 3073 3073
3133 3135 3137 3137 3138 3139 3139 3138 3137 3136 3134 3133 3131 3129 3128 3125 3122 3119 3115 3112 3109 3107 3104 3101 3099 3097 3095 3092 3089 3087 3086 3085 3081 3080 3079 3077 3075 3074 3072 3071 3071 3071 3070
3131 3132 3133 3134 3135 3135 3135 3135 3133 3132 3131 3129 3128 3125 3122 3120 3117 3114 3110 3107 3104 3102 3099 3097 3095 3093 3091 3088 3086 3084 3082 3080 3078 3076 3074 3073 3072 3070 3069 3067 3067 3066 3066
3128 3130 3131 3131 3131 3131 3130 3130 3129 3127 3126 3124 3122 3120 3117 3114 3110 3107 3104 3101 3099 3098 3095 3093 3091 3089 3086 3084 3082 3080 3078 3076 3075 3072 3071 3069 3067 3065 3063 3062 3062 3060 3060
3125 3126 3127 3126 3126 3126 3125 3125 3124 3123 3121 3119 3116 3114 3111 3107 3104 3101 3099 3096 3094 3093 3091 3088 3086 3083 3081 3079 3076 3075 3073 3070 3068 3067 3065 3064 3062 3061 3058 3055 3055 3054 3055
3121 3122 3122 3122 3122 3122 3122 3121 3119 3117 3115 3113 3110 3107 3104 3100 3097 3095 3093 3091 3088 3086 3083 3081 3079 3076 3074 3071 3069 3067 3065 3064 3062 3060 3059 3057 3056 3053 3051 3049 3048 3045 3048
3118 3118 3118 3118 3118 3118 3117 3116 3114 3111 3109 3107 3103 3099 3095 3093 3091 3088 3086 3084 3081 3078 3075 3072 3069 3067 3065 3063 3060 3058 3057 3054 3053 3052 3050 3049 3048 3046 3043 3041 3039 3037 3036
3114 3114 3114 3114 3114 3113 3112 3110 3107 3104 3103 3100 3096 3092 3089 3086 3083 3080 3078 3075 3072 3069 3066 3063 3060 3057 3054 3052 3050 3048 3047 3044 3043 3042 3040 3039 3039 3037 3035 3033 3031 3028 3026
3110 3109 3109 3110 3110 3109 3106 3103 3100 3098 3094 3090 3087 3084 3081 3078 3075 3072 3069 3065 3062 3059 3055 3052 3050 3047 3044 3041 3038 3036 3035 3032 3032 3030 3028 3028 3027 3026 3025 3024 3023 3020 3016
3105 3105 3104 3105 3104 3102 3099 3095 3091 3088 3085 3081 3079 3076 3073 3070 3066 3063 3059 3056 3052 3048 3044 3040 3037 3035 3033 3031 3027 3024 3022 3020 3019 3018 3016 3015 3015 3013 3013 3012 3011 3010 3007
3100 3099 3098 3097 3096 3094 3090 3086 3082 3079 3075 3073 3070 3066 3063 3059 3056 3053 3049 3045 3039 3036 3032 3028 3024 3021 3018 3016 3013 3011 3009 3006 3004 3003 3001 3001 3001 2999 3000 2999 2999 2998 2996
3094 3092 3092 3090 3088 3085 3082 3079 3075 3071 3066 3061 3057 3053 3049 3045 3041 3037 3033 3029 3024 3018 3014 3013 3010 3007 3003 2999 2996 2993 2991 2990 2988 2986 2986 2985 2985 2984 2984 2984 2984 2985 2983
3087 3086 3085 3083 3081 3078 3075 3072 3068 3063 3058 3052 3048 3043 3037 3032 3027 3022 3016 3012 3009 3005 3002 2999 2995 2990 2987 2984 2981 2977 2974 2972 2970 2970 2970 2968 2968 2967 2967 2967 2968 2968 2967
3080 3078 3076 3073 3071 3067 3064 3060 3056 3051 3046 3040 3034 3028 3023 3018 3013 3008 3003 2998 2993 2991 2988 2984 2981 2976 2973 2970 2967 2964 2960 2958 2956 2956 2956 2955 2954 2954 2953 2952 2953 2952 2952
3074 3070 3067 3064 3061 3056 3051 3047 3041 3036 3031 3025 3019 3013 3008 3003 2998 2994 2990 2986 2981 2977 2973 2970 2967 2965 2962 2959 2956 2953 2949 2948 2945 2944 2945 2944 2944 2944 2942 2941 2940 2940 2939
3063 3061 3058 3056 3051 3045 3040 3035 3028 3022 3017 3012 3007 3002 2996 2991 2987 2982 2978 2974 2970 2966 2962 2958 2955 2953 2950 2948 2946 2943 2939 2937 2936 2935 2935 2935 2935 2935 2934 2933 2931 2931 2930
3056 3053 3049 3044 3039 3033 3028 3023 3018 3012 3007 3001 2996 2990 2984 2979 2974 2970 2965 2962 2958 2954 2951 2947 2944 2941 2939 2939 2936 2933 2928 2927 2926 2925 2925 2924 2925 2925 2923 2922 2921 2922 2921
3048 3044 3040 3036 3030 3025 3019 3013 3006 3001 2995 2989 2983 2978 2973 2967 2961 2957 2953 2950 2945 2941 2938 2935 2932 2930 2928 2927 2925 2922 2918 2915 2915 2915 2914 2914 2913 2915 2912 2910 2910 2910 2911
3039 3035 3030 3024 3018 3012 3006 3000 2994 2988 2983 2978 2973 2967 2962 2956 2950 2945 2941 2937 2933 2929 2925 2922 2920 2917 2914 2913 2912 2910 2904 2903 2904 2904 2904 2904 2903 2903 2902 2899 2899 2900 2902
3029 3024 3018 3012 3006 3001 2995 2989 2984 2979 2973 2967 2960 2955 2949 2943 2938 2932 2928 2924 2920 2916 2913 2909 2907 2904 2903 2900 2899 2897 2893 2891 2890 2891 2891 2891 2892 2891 2891 2890 2889 2890 2891
3017 3013 3006 3000 2996 2991 2985 2979 2973 2967 2960 2954 2947 2941 2934 2928 2923 2917 2913 2910 2907 2903 2900 2897 2894 2892 2890 2888 2885 2884 2883 2881 2877 2876 2876 2878 2879 2879 2879 2879 2879 2879 2878
3007 3002 2996 2990 2986 2981 2975 2967 2961 2953 2947 2939 2933 2926 2920 2914 2908 2902 2898 2895 2893 2890 2887 2884 2881 2879 2878 2875 2873 2871 2869 2867 2866 2865 2864 2864 2865 2865 2865 2866 2866 2866 2866
2996 2991 2985 2980 2975 2971 2964 2956 2949 2943 2935 2928 2921 2914 2907 2900 2895 2890 2885 2881 2879 2876 2874 2871 2868 2866 2864 2862 2861 2858 2856 2856 2855 2855 2853 2852 2851 2851 2852 2852 2854 2854 2854
2987 2981 2975 2969 2964 2958 2953 2946 2940 2932 2924 2917 2909 2902 2895 2888 2882 2877 2873 2869 2867 2865 2861 2858 2855 2852 2849 2850 2849 2847 2845 2844 2844 2842 2840 2839 2839 2839 2839 2840 2841 2841 2841
2977 2971 2965 2958 2953 2948 2943 2936 2929 2921 2913 2906 2899 2891 2884 2877 2872 2865 2860 2859 2855 2852 2849 2846 2842 2839 2836 2836 2836 2835 2834 2833 2832 2830 2828 2827 2827 2827 2827 2827 2828 2828 2830